Weather History for Crane Lake, MN

Change the Weather History Date:

Monday, February 4, 2013

  Actual Average Record
Temperature  
Mean Temperature -14 °F -  
Max Temperature 6 °F 22 °F 44 °F (2005)
Min Temperature -34 °F 1 °F -34 °F (2013)
Degree Days  
Heating Degree Days 79    
Moisture  
Dew Point -15 °F    
Average Humidity 72    
Maximum Humidity 85    
Minimum Humidity 56    
Precipitation  
Precipitation 0.00 in - - ()
Sea Level Pressure  
Sea Level Pressure 29.89 in    
Wind  
Wind Speed 1 mph (South)    
Max Wind Speed 6 mph    
Max Gust Speed -    
Visibility 8 miles    
Events Snow    
Averages and records for this station are not official NWS values.
T = Trace of Precipitation, MM = Missing Value Source: NWS Daily Summary

Daily Weather History Graph

Daily Weather History Graph

Search for Another Location

Airport:

Trip Planner

Search our weather history database for the weather conditions in past years. The results will help you decide how hot, cold, wet, or windy it might be!

Date:

Astronomy

Feb. 04, 2013 Rise Set
Actual Time 7:33 AM CST 5:14 PM CST
Civil Twilight 7:00 AM CST 5:47 PM CST
Nautical Twilight 6:23 AM CST 6:25 PM CST
Astronomical Twilight 5:47 AM CST 7:01 PM CST
Moon 2:16 AM CST (2/4) 11:31 AM CST (2/4)
Length of Visible Light 10h 47m
Length of Day
9h 40m
Last Quarter, 37% of the Moon is Illuminated
Feb 4
Last Quarter
Feb 10
New
Feb 17
First Quarter
Feb 25
Full
Mar 4
Last Quarter

Hourly Weather History & Observations

Time (CST) Temp. Windchill Dew Point Humidity Pressure Visibility Wind Dir Wind Speed Gust Speed Precip Events Conditions
12:12 AM -27.4 °F - -34.6 °F 69% 30.01 in 10.0 mi Calm Calm - N/A   Clear
12:32 AM -27.4 °F - -34.6 °F 69% 30.01 in 10.0 mi Calm Calm - N/A   Clear
12:52 AM -27.4 °F - -36.4 °F 62% 30.01 in 10.0 mi Calm Calm - N/A   Clear
1:12 AM -29.2 °F - -36.4 °F 68% 30.01 in 10.0 mi Calm Calm - N/A   Clear
1:52 AM -29.2 °F - -36.4 °F 68% 30.01 in 10.0 mi Calm Calm - N/A   Clear
2:12 AM -31.0 °F - -38.2 °F 68% 30.02 in 2.5 mi Calm Calm - N/A   Haze
2:32 AM -31.0 °F - -38.2 °F 68% 30.02 in 10.0 mi Calm Calm - N/A   Clear
2:52 AM -31.0 °F - -38.2 °F 68% 30.01 in 10.0 mi Calm Calm - N/A   Clear
3:12 AM -32.8 °F - -38.2 °F 75% 30.01 in 10.0 mi Calm Calm - N/A   Clear
5:12 AM -34.6 °F - -41.8 °F 68% 30.01 in 10.0 mi Calm Calm - N/A   Clear
5:32 AM -34.6 °F - -41.8 °F 68% 30.01 in 10.0 mi Calm Calm - N/A   Clear
5:52 AM -34.6 °F - -41.8 °F 68% 30.01 in 10.0 mi Calm Calm - N/A   Clear
6:12 AM -34.6 °F - -41.8 °F 68% 30.01 in 10.0 mi Calm Calm - N/A   Clear
6:32 AM -34.6 °F - -43.6 °F 61% 30.01 in 10.0 mi Calm Calm - N/A   Scattered Clouds
6:52 AM -34.6 °F - -41.8 °F 68% 30.02 in 10.0 mi Calm Calm - N/A   Mostly Cloudy
7:12 AM -31.0 °F - -36.4 °F 75% 30.01 in 10.0 mi Calm Calm - N/A   Overcast
7:32 AM -27.4 °F - -34.6 °F 69% 30.00 in 10.0 mi Calm Calm - N/A   Overcast
7:52 AM -25.6 °F - -31.0 °F 76% 30.01 in 10.0 mi Calm Calm - N/A   Overcast
8:12 AM -22.0 °F - -27.4 °F 76% 30.00 in 7.0 mi Calm Calm - N/A   Overcast
8:32 AM -20.2 °F - -25.6 °F 76% 30.01 in 5.0 mi Calm Calm - N/A Snow Light Snow
8:52 AM -18.4 °F - -25.6 °F 70% 30.01 in 4.0 mi Calm Calm - N/A Snow Light Snow
9:12 AM -16.6 °F - -23.8 °F 70% 30.01 in 4.0 mi Calm Calm - N/A Snow Light Snow
9:32 AM -14.8 °F - -18.4 °F 84% 30.00 in 3.0 mi Calm Calm - N/A Snow Light Snow
9:52 AM -13.0 °F - -18.4 °F 77% 30.00 in 5.0 mi Calm Calm - N/A Snow Light Snow
10:12 AM -11.2 °F - -16.6 °F 77% 29.99 in 5.0 mi Calm Calm - N/A   Haze
10:32 AM -5.8 °F - -11.2 °F 77% 29.99 in 10.0 mi Calm Calm - N/A   Overcast
10:52 AM -0.4 °F - -5.8 °F 78% 29.99 in 10.0 mi Calm Calm - N/A   Overcast
11:12 AM 1.4 °F - -2.2 °F 85% 29.99 in 10.0 mi Calm Calm - N/A   Mostly Cloudy
11:32 AM 3.2 °F - -2.2 °F 78% 29.98 in 10.0 mi Calm Calm - N/A   Mostly Cloudy
11:52 AM 5.0 °F - -0.4 °F 78% 29.96 in 10.0 mi Calm Calm - N/A   Mostly Cloudy
12:32 PM 3.2 °F -4.2 °F -7.6 °F 61% 29.94 in 10.0 mi SSW 3.5 mph - N/A   Overcast
12:52 PM 6.8 °F -0.1 °F -5.8 °F 56% 29.93 in 10.0 mi WSW 3.5 mph - N/A   Scattered Clouds
1:12 PM 6.8 °F - -5.8 °F 56% 29.92 in 10.0 mi Calm Calm - N/A   Clear
1:32 PM 6.8 °F -3.5 °F -5.8 °F 56% 29.93 in 10.0 mi SW 5.8 mph - N/A   Scattered Clouds
1:52 PM 5.0 °F -2.1 °F -4.0 °F 66% 29.92 in 10.0 mi SW 3.5 mph - N/A   Mostly Cloudy
2:12 PM 5.0 °F - -5.8 °F 61% 29.91 in 10.0 mi Calm Calm - N/A   Overcast
2:32 PM 5.0 °F -2.1 °F -5.8 °F 61% 29.90 in 10.0 mi West 3.5 mph - N/A   Overcast
2:52 PM 5.0 °F - -5.8 °F 61% 29.90 in 10.0 mi Calm Calm - N/A   Overcast
3:12 PM 5.0 °F -2.1 °F -4.0 °F 66% 29.89 in 10.0 mi SW 3.5 mph - N/A   Overcast
3:32 PM 3.2 °F - -4.0 °F 72% 29.88 in 10.0 mi Calm Calm - N/A   Overcast
3:52 PM 3.2 °F - -4.0 °F 72% 29.86 in 10.0 mi Calm Calm - N/A   Overcast
4:12 PM 3.2 °F -7.8 °F -4.0 °F 72% 29.85 in 10.0 mi South 5.8 mph - N/A   Overcast
4:32 PM 3.2 °F -4.2 °F -4.0 °F 72% 29.84 in 10.0 mi South 3.5 mph - N/A   Overcast
4:52 PM 3.2 °F -6.2 °F -4.0 °F 72% 29.84 in 10.0 mi SSE 4.6 mph - N/A   Overcast
5:12 PM 3.2 °F - -4.0 °F 72% 29.82 in 10.0 mi Calm Calm - N/A   Overcast
5:32 PM 3.2 °F - -4.0 °F 72% 29.81 in 10.0 mi Calm Calm - N/A   Overcast
5:52 PM 1.4 °F - -5.8 °F 72% 29.81 in 10.0 mi Calm Calm - N/A   Overcast
6:12 PM 1.4 °F - -7.6 °F 66% 29.81 in 10.0 mi Calm Calm - N/A   Overcast
6:32 PM 1.4 °F - -5.8 °F 72% 29.80 in 10.0 mi Calm Calm - N/A   Overcast
6:52 PM 1.4 °F - -4.0 °F 78% 29.79 in 10.0 mi Calm Calm - N/A   Overcast
7:12 PM 1.4 °F - -4.0 °F 78% 29.79 in 10.0 mi Calm Calm - N/A   Overcast
7:32 PM 3.2 °F - -2.2 °F 78% 29.78 in 10.0 mi Calm Calm - N/A   Overcast
7:52 PM 3.2 °F - -2.2 °F 78% 29.77 in 10.0 mi Calm Calm - N/A   Overcast
8:12 PM 3.2 °F - -2.2 °F 78% 29.76 in 10.0 mi Calm Calm - N/A   Overcast
8:32 PM 3.2 °F - -2.2 °F 78% 29.75 in 10.0 mi Calm Calm - N/A   Overcast
8:52 PM 3.2 °F - -2.2 °F 78% 29.74 in 3.0 mi Calm Calm - N/A Snow Light Snow
9:12 PM 3.2 °F - -2.2 °F 78% 29.73 in 1.8 mi Calm Calm - N/A Snow Light Snow
9:32 PM 3.2 °F -6.2 °F -2.2 °F 78% 29.71 in 1.8 mi SSE 4.6 mph - N/A Snow Light Snow
9:52 PM 3.2 °F -6.2 °F -0.4 °F 85% 29.70 in 1.2 mi SSE 4.6 mph - N/A Snow Light Snow
10:12 PM 3.2 °F - -0.4 °F 85% 29.68 in 0.8 mi Calm Calm - N/A Snow Light Snow
10:32 PM 3.2 °F - -0.4 °F 85% 29.68 in 0.8 mi Calm Calm - N/A Snow Light Snow
10:52 PM 3.2 °F -6.2 °F -0.4 °F 85% 29.65 in 0.5 mi SE 4.6 mph - N/A Snow Snow
11:12 PM 5.0 °F -4.1 °F 1.4 °F 85% 29.64 in 0.5 mi SE 4.6 mph - N/A Snow Snow
11:32 PM 5.0 °F -4.1 °F 1.4 °F 85% 29.63 in 0.5 mi SSE 4.6 mph - N/A Snow Snow
11:52 PM 6.8 °F -0.1 °F 1.4 °F 79% 29.64 in 0.5 mi SSE 3.5 mph - N/A Snow Snow